Regional Weather Roundup
Issued by NWS

Home | Current Version | Previous Version | Graphics & Text | Print | Product List | Glossary On
Versions: 1 2 3 4 5 6 7 8 9 10 11 12 13 14 15 16 17 18 19 20 21 22 23 24 25 26 27
000
ASUS45 KBOU 210607
RWRCO

WEATHER ROUNDUP FOR COLORADO
NATIONAL WEATHER SERVICE DENVER/BOULDER CO
1200 AM MDT THU SEP 21 2017

NOTE: "FAIR" INDICATES FEW OR NO CLOUDS BELOW 12000 FEET WITH NO
SIGNIFICANT WEATHER AND/OR OBSTRUCTIONS TO VISIBILITY.

COZ001>005-013-030-031-210700-
...NORTHWEST COLORADO...

CITY           SKY/WX    TMP DP  RH WIND       PRES   REMARKS
CRAIG          FAIR      44  36  73 CALM      29.83F
HAYDEN         FAIR      60  30  32 SE10      29.88F
MEEKER         FAIR      54  30  40 NE8       29.85F
RABBIT EARS PA FAIR      45  27  49 S12G28    30.12F
STEAMBOAT SPGS FAIR      50  34  53 E6        29.89F
WALDEN         FAIR      39  28  65 SE9       29.99F
$$

COZ006>008-011-210700-
...WEST CENTRAL VALLEYS...

CITY           SKY/WX    TMP DP  RH WIND       PRES   REMARKS
GRAND JUNCTION FAIR      65  30  27 SE12      29.78S
MONTROSE       FAIR      69  26  20 MISG      29.92R
EAGLE          FAIR      55  28  35 E12       29.93F
RIFLE          FAIR      63  29  27 E7        29.83S
DELTA          FAIR      65  31  27 NE5       29.87S
NUCLA          FAIR      70  27  19 S15G24    29.95F
$$

COZ017>023-064>068-210700-
...SOUTHWEST COLORADO...

CITY           SKY/WX    TMP DP  RH WIND       PRES   REMARKS
DURANGO        FAIR      48  32  53 N7        30.06R
CORTEZ         FAIR      59  31  34 S10       29.98S
PAGOSA SPRINGS FAIR      45  27  50 CALM      30.13S
TELLURIDE      FAIR      59  24  25 S20G25    30.16F
WOLF CREEK PAS FAIR      39  21  48 S26G41    30.36S
$$

COZ009-010-012-014-032>034-037-058>063-210700-
...CENTRAL COLORADO...

CITY           SKY/WX    TMP DP  RH WIND       PRES   REMARKS
ASPEN          FAIR      54  26  34 SE12G18   30.01F
BUENA VISTA    FAIR      47  25  42 CALM      30.05F
COPPER MTN     FAIR      46  12  25 S17       30.28F
BERTHOUD PASS  FAIR      39  32  75 W20G33    30.28F
COTTONWOOD PAS FAIR      59  21  23 W3        30.17F
GUNNISON       FAIR      44  30  57 N7        30.08F
KREMMLING      FAIR      55  27  33 E6        29.96F
LEADVILLE      FAIR      46  19  34 S6        30.15S
MONARCH PASS   FAIR      43  19  39 SW40      30.39F
SALIDA         FAIR      65  22  19 SW8       30.11S
SUNLIGHT       FAIR      43  23  45 S17G39    30.18F
WILKERSON PASS FAIR      43  21  42 S10G18    30.26F
$$

COZ069>075-210700-
...SAN LUIS VALLEY/SANGRE DE CRISTO MOUNTAINS...

CITY           SKY/WX    TMP DP  RH WIND       PRES   REMARKS
ALAMOSA        FAIR      44  27  51 SW10      30.09S
DEL NORTE      FAIR      44  26  49 W15       30.11F
LA VETA PASS   FAIR      52  19  28 S14G30    30.34F
SAGUACHE       FAIR      45  28  53 NW7       30.10F
$$

COZ035-036-038>040-210700-
...NORTHERN COLORADO FRONT RANGE...

CITY           SKY/WX    TMP DP  RH WIND       PRES   REMARKS
DENVER INTL AP FAIR      56  31  38 NE5       29.84F
DMNS CITY PARK   N/A     62  33  33 SE7G15    29.83F
AURORA         CLEAR     62  35  35 S21       29.84F
FRONT RANGE AP FAIR      63  36  36 S12G21    29.84F
ERIE MUNI ARPT FAIR      47  36  63 CALM      29.88S
BOULDER MUN AP FAIR      55  37  50 CALM      29.83S
CENTENNIAL     FAIR      63  33  32 S21       29.86F
BROOMFIELD     FAIR      57  32  38 SW5       29.86S
FORT COLLINS   FAIR      52  38  58 NW7       29.83F
LONGMONT       FAIR      50  37  61 CALM      29.84F
$$

COZ041-046-047-076>085-087-088-210700-
...PIKES PEAK/PALMER DIVIDE AND SOUTHERN FOOTHILLS...

CITY           SKY/WX    TMP DP  RH WIND       PRES   REMARKS
COLO. SPRINGS  FAIR      50  35  56 NE7       29.97F
A. F. ACADEMY  FAIR      51  33  49 N8        29.97F
SCHRIEVER AFB  FAIR      52  34  49 N6        29.97F
CHEYENNE MTN   FAIR      55  31  39 CALM      29.95F
ELLICOTT         N/A    N/A N/A N/A CALM      29.95F
FALCON         FAIR      46  33  60 CALM      30.01F
FORT CARSON    FAIR      49  34  56 NW8       29.93F
LIMON          FAIR      52  36  54 SE5       29.92S
MONUMENT HILL  FAIR      50  34  53 S18       29.99F
CANON CITY     CLEAR     54  34  47 W6        29.93S
WALSENBURG     FAIR      59  30  33 E7        29.96F
TRINIDAD       FAIR      61  35  37 SW13      29.97S
$$

COZ042>045-048>051-090-091-210700-
...NORTHEAST COLORADO...

CITY           SKY/WX    TMP DP  RH WIND       PRES   REMARKS
GREELEY ARPT   FAIR      53  35  50 E5        29.82F
AKRON          FAIR      56  31  38 SE14      29.85F
BURLINGTON     FAIR      56  38  50 S15       29.88F
WRAY           FAIR      55  32  41 E7        29.87F
YUMA           FAIR      50  34  53 SE6       29.85F
STERLING       FAIR      52  34  50 W3        29.84F
HOLYOKE        NOT AVBL
FORT MORGAN    FAIR      52  31  44 E7        29.85F
$$

COZ086-089-092>099-210700-
...SOUTHEAST COLORADO...

CITY           SKY/WX    TMP DP  RH WIND       PRES   REMARKS
PUEBLO         FAIR      55  36  48 W5        29.88S
LA JUNTA       FAIR      55  39  54 E7        29.86F
LAMAR          FAIR      54  39  57 E9        29.86F
SPRINGFIELD      N/A     55  45  68 S5        29.93F
$$




USA.gov is the U.S. government's official web portal to all federal, state and local government web resources and services.